Location: Newark
(0.5300°S, 127.4800°E)
Time: 22:02:35
(UTC+00:00)

Vanguard 3 - Pass Details

Date: 25 September 2019
Orbit: 508 x 3262 km, 33.3° (Epoch: 15 October)

Event Time Altitude Azimuth Distance (km) Brightness Sun altitude
Rises 17:07:01 0° 214° (SSW) 2,820 - -63.7°
Reaches altitude 10° 17:09:09 10° 202° (SSW) 2,079 - -63.1°
Maximum altitude 17:13:22 31° 138° (SE) 1,446 - -62.1°
Drops below altitude 10° 17:19:46 10° 78° (ENE) 3,208 - -60.5°
Exits shadow 17:20:40 - 75° (ENE) 3,527 10.7 -60.2°
Sets 17:23:54 0° 69° (ENE) 4,673 11.4 -59.4°
